Date,SPY,VEA,VWO,BND,SHY,IEF,LQD
2010-01-01,0.06411388736252971,-0.04632922459326694,0.07934118309021071,0.08498721332726322,0.03995706695569379,0.07614560722365826,0.09638445662080158
2010-02-01,0.2853314094967925,0.1303628325598095,0.3208369471690169,0.04535922833075606,0.01606200021630533,-0.000996574355839941,0.0725285648517206
2010-03-01,0.4213719227929359,0.3530874402994171,0.5314194719643486,0.03166800557698635,0.00445710722347159,-0.02984282100507496,0.09949168831549021
2010-04-01,0.3329847522036957,0.05930556409469828,0.2955591990847899,0.07390482560087303,0.01858266448271045,0.0640881249077167,0.1536332047605115
2010-05-01,-0.1930947761418692,-0.4804935183977938,-0.2677094690286109,0.08403118231493611,0.02638232496302878,0.1460667858591353,0.01143737673896483
2010-06-01,-0.2655468201853466,-0.2701788043486552,-0.09936619682099979,0.1280985458653948,0.03999726060517317,0.2416771196172198,0.2040620341811942
2010-07-01,0.1897532902788883,0.3393899938579466,0.3999797408548041,0.1048594446779638,0.02935096289536882,0.1620320791105216,0.1687555177214768
2010-08-01,-0.1758921273777235,-0.07302631988833688,0.06005721030441108,0.138084860822026,0.02850881988654463,0.2631541977856831,0.2517852677017893
2010-09-01,0.3985186583489317,0.4763841749803834,0.6275107533009887,0.07470646825799421,0.02355281525914832,0.1333516071294549,0.145504382075166
2010-10-01,0.2403036919152278,0.2810199899258845,0.3355125900892366,0.07508399685432876,0.02663638938335861,0.1149340416863595,0.08838891147916272
2010-11-01,0.2031277568670547,0.01345610918050322,0.1634610968830904,0.007889873280562176,0.004086564723818686,0.01711770308147936,-0.008436271046490917
2010-12-01,0.4614227049572889,0.4809059735170578,0.4981354934008095,-0.02386898915164665,0.001297467363297111,-0.1235647485047862,-0.01163624475098984
2011-01-01,0.3067388912192159,0.2405080336804248,0.02975891655056556,7.208416443510446e-05,0.007258995544653923,-0.03240226747692643,0.001255234039678754
2011-02-01,0.429246593603291,0.4322028947735712,0.1632902023209287,0.009580741048281438,-0.001997748093280516,-0.04984180738909944,0.05216455483805099
2011-03-01,0.1847369601039411,0.03752431084726898,0.2739325973122533,0.004624165401942437,-0.002803727578928994,-0.01384346571977368,-0.002445174944817663
2011-04-01,0.2757377121032673,0.3759304264831818,0.2946994389913679,0.0734014908031238,0.02329929045831292,0.07389938003529495,0.1288721662930786
2011-05-01,0.1231074175370973,0.08652862163522512,0.09539846261657337,0.08339772805354428,0.02569585275072123,0.1369867070745443,0.1155614079900481
2011-06-01,0.05532028693496455,0.09468147911827268,0.04372197196845223,0.03294046847321941,0.01562975185694393,0.04902813503499892,0.03973031074305855
2011-07-01,-0.05105010488431283,-0.08836241851721133,-0.0003586089053947972,0.1045204391367445,0.02287428839040057,0.1950879287603884,0.1490274823659992
2011-08-01,-0.2452300674530259,-0.4054065252936764,-0.380892936664344,0.1176715419355777,0.02706150680655967,0.2908781381746806,0.06648608653045057
2011-09-01,-0.4126282974427691,-0.6712141357288872,-0.9997591174622451,0.104626171183762,0.01228420196251007,0.2674393739904445,0.08305692119820907
2011-10-01,0.2875155355653389,0.08570841895746362,0.2224779997154661,0.06494204387128055,0.01084879342302614,0.09295748582407781,0.1558631448089534
2011-11-01,0.002695826109354593,-0.1967852503667678,-0.2284995674920222,0.03764994824748669,0.007203065198180092,0.1014398254479851,-0.07749331566006334
2011-12-01,0.1332405947788131,-0.1271266038638746,-0.1775342420151935,0.09398353588763897,0.009787625335003824,0.1702167020759014,0.1861748631756457
2012-01-01,0.2161731027743748,0.1073043700879773,0.2985716625301083,0.07921591022411884,0.01005241000841345,0.1485402112803969,0.146522457868204
2012-02-01,0.3131012967153012,0.2264138777090788,0.2986504078068515,0.05344145751995744,-0.0009929045117577084,0.03977490988148041,0.190132707309143
2012-03-01,0.3733984056651991,0.1915655836833329,0.1580788034075633,0.01304629126554219,-0.0001149170867545957,-0.03416107466804585,0.03559986220020889
2012-04-01,0.1246819044650516,-0.05746853435428476,-0.06745471185500737,0.07011599873365332,0.00943084529595406,0.1258610370944134,0.08885730175134443
2012-05-01,-0.1861261218731767,-0.5454028357409019,-0.5431532410385104,0.07833237982603136,0.006345397473287773,0.1894822143456704,0.08994062295593236
2012-06-01,0.1540320433219804,0.1171318073687272,0.0519943610712563,0.05373763695085865,0.0005486097424541314,0.09120694744145247,0.1076920553161248
2012-07-01,0.07635873049764652,-0.080022252953908,-0.1193648198551657,0.09197406465714503,0.01079066397666467,0.1321347513452291,0.2201892769435919
2012-08-01,0.2193468960613768,0.1871191466283034,-0.004463915499328952,0.04872614283221699,0.003786432087758529,0.04866726446702219,0.09567405625212605
2012-09-01,0.2310450068209035,0.1726485073392333,0.2547637539268805,0.05278932152291888,0.005974201249093647,0.04218798079949582,0.1481409709960517
2012-10-01,0.02553911871222359,0.1288500585292436,0.03578529050690199,0.02419925412876617,-0.001087018437175014,0.01022045349775474,0.1321286076811925
2012-11-01,0.1160994329403341,0.2648874969629118,0.1752584158459315,0.02386035921560059,0.00162921152755835,0.05395363699180467,0.06227774056477148
2012-12-01,0.0926637408680443,0.3307629572488054,0.4087851789782739,-0.02490014519961498,0.002293840299823213,-0.01991991525626879,0.04279148157543267
2013-01-01,0.3117767511287286,0.3635479609299037,0.1759192133531879,-0.0380944543321598,0.001481998936985141,-0.05837179897502309,-0.04589138367701356
2013-02-01,0.1888555411740878,0.1300767470715286,0.029576517167374,0.00647311008969903,0.004082114554498917,0.02774293038121528,0.04721397403891664
2013-03-01,0.3036893782010986,0.1633382240166516,-0.05038919073521198,0.003314612817516049,0.003707747968110575,0.02273175635790958,0.01432166275137392
2013-04-01,0.2421770199227626,0.3425130370815666,0.09036755755867643,0.05386737500787336,0.005694803742458399,0.09555480491913942,0.1229749624616518
2013-05-01,0.3030181268081204,0.07255317849313575,-0.1662910722068894,-0.07643275841791172,-0.003590091318223909,-0.1222639010983444,-0.1059767780532587
2013-06-01,0.1093119160363766,-0.02989521442226251,-0.3000024657302141,-0.09328814321715034,-0.0044639364602303,-0.1465496423923037,-0.1645041779302021
2013-07-01,0.3492903436989142,0.2310626221440806,-0.1262061648994053,-0.03537845534390485,0.004912226151311483,-0.09808200807101197,-0.0374217962464474
2013-08-01,0.007830358567812334,0.02401567733019511,-0.2485501163703021,-0.07129745183401556,-0.003565226302085167,-0.1291761444158528,-0.0911826985393227
2013-09-01,0.237140745556265,0.4670538915318783,0.2380487014787092,0.02260751867416361,0.01072428738138781,0.024528681453274,0.004076345820703459
2013-10-01,0.3097338776055887,0.3027410032508426,0.2107218631618313,0.0212615088685813,0.005496097743117823,0.003114050777680871,0.04244307349836574
2013-11-01,0.3349441084227778,0.2655193848636339,0.09631929009983947,-0.0002566662876630488,0.009467382644898215,-0.03439948433335635,0.009533256451400601
2013-12-01,0.345388214388923,0.2610042079121225,0.04739870188024545,-0.02243375304996151,-0.003576928317395589,-0.1106406438535827,0.03399134785412486
2014-01-01,0.0004454587289635104,-0.1233914691481144,-0.3921925841883443,0.06136244368027022,0.009788907667627633,0.09329184042234076,0.09661620146772654
2014-02-01,0.3098020763085095,0.3231180691134194,0.04229912692110624,0.04333955273526013,0.004998564154237051,0.03182553395103543,0.09896554347777253
2014-03-01,0.1583810411030855,0.06330271965075607,0.1312190934001108,0.02176021350785887,-0.0007666430732754526,0.005860260701607334,0.05723307712779568
2014-04-01,0.174034531436598,0.1742098691993204,0.1001865313922122,0.04263821689619068,0.005089967379803662,0.02051823804402364,0.08782743430348888
2014-05-01,0.1966510687264143,0.1571423053562297,0.2060108601178886,0.07045837888343243,0.009818853488285373,0.09312156756315021,0.1180473643166647
2014-06-01,0.2092795472141921,0.1568601598546726,0.2343797972133092,0.05222657682562937,0.002924565599429441,0.05129268993295633,0.08099416869179665
2014-07-01,0.07857349847969758,0.007480955037163839,0.2440628773638485,0.0193884145662615,-0.0008459556890751396,0.02480194496099597,0.03917266840250422
2014-08-01,0.2713707026029106,0.04832259519117044,0.351116335401334,0.07149510946950638,0.008552490011100256,0.1047472966999411,0.1263064142444859
2014-09-01,0.05058832126784579,-0.1869072088227178,-0.1961517087238258,0.007012562067132355,0.0002672999964992151,-0.001730187968965013,-0.01672637471044958
2014-10-01,0.2028150383831323,-0.07173301705314455,0.09560259458181009,0.0551530702880727,0.01490180481454623,0.09947861574928157,0.08433019067738734
2014-11-01,0.2041119860502157,-0.07367724288901883,-0.07340102020359296,0.05710197483601048,0.009095183115620131,0.08906657120538253,0.06355626387596175
2014-12-01,0.1055048096083533,-0.2192636315352697,-0.2059341949776155,0.04195612965786499,-0.00640531823941165,0.07425383925480417,0.05194250714592991
2015-01-01,-0.03733000930374702,-0.0456478760407143,-0.0792362625467557,0.1452508964091798,0.02946667867773556,0.2542446922963225,0.2162277803563365
2015-02-01,0.2593027428690658,0.2052507990089519,0.1286371119512746,-0.005348473646466123,-0.005286124788400182,-0.01915419586642708,0.01203903475339951
2015-03-01,0.02218682740562045,0.02405066111271659,-0.03722886244353202,0.06275116677339238,0.01886910412020276,0.1018731538242929,0.0730844804303642
2015-04-01,0.1335472604910685,0.2366968183273126,0.3666078119134588,0.001323023918645472,0.005051670441319045,-0.006383966285910925,-0.03636895123551331
2015-05-01,0.08924598013088181,0.0507829425711904,-0.07939763822587292,-0.006487191633552991,0.007999121633497808,0.006104689251145545,-0.0484906964127893
2015-06-01,-0.03534905848398107,-0.05768382172357014,-0.05755635362324393,-0.05035734547823012,0.007453427138848834,-0.06758928985754975,-0.1058517955909893
2015-07-01,0.1430016508349718,0.06356493263755689,-0.3470332044424012,0.01674817324690042,0.005363690459716242,0.03913726192528361,-0.01573699953941726
2015-08-01,-0.2674830101604841,-0.3543601951070315,-0.6097121852560036,-0.01276752404404263,0.002243530167219121,0.00896831680467236,-0.06679012309685373
2015-09-01,-0.1738816505216847,-0.2841803138729768,-0.3975273916027122,0.04307608217394132,0.01637183154422123,0.0970251492543896,0.03642532505280466
2015-10-01,0.2648445990846776,0.1161019004246309,-0.05339030468686937,0.01111402766668018,-0.0004633362981298905,0.002930947517842231,0.02233348814866537
2015-11-01,0.07827016327832975,-0.04775971041966418,-0.2007934349104277,-0.005625843451590617,-0.00847889368944621,-0.0003601965349512293,0.009511308869556812
2015-12-01,0.02217040208162824,-0.06039946721777936,-0.2417411936861837,-0.004789588790671706,-0.01016855332661393,-0.01669964189097689,-0.0396796317641234
2016-01-01,-0.2490388539201851,-0.3290089305383734,-0.4246433592229794,0.04683118836340464,0.02484771596944979,0.1429888968820567,-0.02018294200578383
2016-02-01,-0.08993227926198033,-0.2780214715021461,-0.2100914600588378,0.05989753674355813,0.01419293609522426,0.124719441178083,0.03505711590500818
2016-03-01,0.2615150627676096,0.1872597821464014,0.4344165606664563,0.07290253818110964,0.01679189051100816,0.07132498694431283,0.1799673248271583
2016-04-01,0.08681688956733846,0.09786248464212444,0.1247606587440084,0.05414540209659596,0.00848901722877976,0.03697156752083552,0.1452483889224619
2016-05-01,0.1528518886585328,0.05171593506339922,-0.03996947055657546,0.03640097977836265,0.001813328367545108,0.02540305896958617,0.06648470246785743
2016-06-01,0.06401511378696528,-0.09308402974914662,0.1876177826770007,0.1281430140671064,0.03332376557279959,0.1835038797874793,0.2047920371314784
2016-07-01,0.2468511734758183,0.1677831062868591,0.3255544614051923,0.08364134421428454,0.009248592765061514,0.08288691514407603,0.1556338711647448
2016-08-01,0.1431635093807691,0.1013665211146035,0.2752856464586726,0.04688240252335041,0.0002920340797464283,0.01991677296995348,0.1275709149382847
2016-09-01,0.1078421434134997,0.163136285391248,0.2375361909702451,0.03482961568293519,0.006009349232682482,0.02711322820221052,0.05317737710255832
2016-10-01,-0.03669053445645915,-0.07276627094400073,0.1193644268141206,-0.02156117302563171,0.0004743799625857026,-0.05126100165652725,-0.03310108294250674
2016-11-01,0.1796366909092783,-0.07275087057929103,-0.07093195672924613,-0.1117346553873662,-0.01684310359609176,-0.195819953146785,-0.1368712105635879
2016-12-01,0.1697189931133009,0.08819786853026973,-0.01988033877907719,-0.02943701964024642,-0.003218908802439413,-0.09011559832455746,-0.01147676959610794
2017-01-01,0.2101335231090437,0.2085519915526709,0.264060801810851,-0.02732964424193135,-0.001248252194475941,-0.07131599111257475,-0.02140283134415688
2017-02-01,0.3090694240527754,0.1728225666432335,0.2405128459274672,0.02159202334671723,0.002888564410613137,-0.0002594265279146635,0.06538289245279999
2017-03-01,0.1561800338343395,0.2352963029299192,0.2731961016286437,-0.004877792865729202,0.003110628226259904,-0.01793326033201531,-0.004557320872781323
2017-04-01,0.1909335305763363,0.2197040474842358,0.1987249600082149,0.03585236502752931,0.009162319573348121,0.03754565960908246,0.06300569358392732
2017-05-01,0.1647933384524875,0.3186994242204915,0.209748733421181,0.05276405068103857,0.009328242047636992,0.05819302219559022,0.09542434219912488
2017-06-01,0.1401399048578698,0.2076291676017285,0.1821217586757248,0.0276004967519124,0.0009085442654611919,0.001395980686225873,0.06933166368112281
2017-07-01,0.1904275485803531,0.273798626189637,0.3535610453266373,0.04479091203509528,0.00979547842550571,0.02166413089176766,0.0754895367800909
2017-08-01,0.1073627308642041,0.1460810141350127,0.3154599575191979,0.06781652326641946,0.01350541541350081,0.07018143385411743,0.06411992507994707
2017-09-01,0.1889616929744928,0.2396911225541714,0.1697826699558308,0.01273721368424918,-0.001312286966351883,-0.03827086333615681,0.03890561757566213
2017-10-01,0.2218827944938764,0.2164934841697036,0.2388790637865904,0.01768329645629046,-0.002722475846243855,-0.009653965330373215,0.03970457606415972
2017-11-01,0.2787380842242553,0.1915048203516085,0.1261470102057131,0.005873333332576058,-0.01145121050711312,-0.02484186999328225,0.02290147866203907
2017-12-01,0.2156840618947584,0.2095331835981392,0.3200873237949936,0.03840365742836144,-0.003855761973382221,0.009513511829604915,0.08068527969092293
2018-01-01,0.4136368322170418,0.3461371497027274,0.5552520368300224,-0.04017445299785061,-0.01711917956432643,-0.09878401510594248,-0.02084936724425213
2018-02-01,0.01834366765547696,-0.06129750004604656,0.008326174986439394,-0.05794608121536482,-0.01224320618482672,-0.08427469155068557,-0.09617150875745384
2018-03-01,-0.02928131339449025,0.03481904129644403,0.1148255640153726,0.002662499186401379,0.003463201401417565,0.002989237943844758,-0.01361704579375977
2018-04-01,0.009640864101403579,0.04629340131054194,-0.1093612487035704,-0.04791713418858923,-0.01224920152912559,-0.07241830506635275,-0.09627037619029086
2018-05-01,0.1260686133625094,-0.02250385651848547,-0.08731677063612636,0.01908205977166552,0.01341778093661888,0.02114176811314211,-0.005231113523860631
2018-06-01,0.1011099820040989,-0.06443989658391636,-0.2612634468644749,-0.00207917170004096,0.002723102096895719,-0.01027993135157781,-0.05640985273081278
2018-07-01,0.2230836787014132,0.05058802962578074,0.04163100892323929,0.003769130452088654,0.001900239541554077,-0.01854237367749415,0.04147647277616207
2018-08-01,0.2596956540134024,-0.06074503760173244,-0.2347199275176604,0.03240175517842458,0.01665443238443498,0.03671000894005758,0.006414369644007184
2018-09-01,0.1963023252902103,0.03713538141055533,-0.1221844928923458,-0.01782275096059838,-0.001757344972836833,-0.05522207217099459,0.001399323351539389
2018-10-01,-0.2068907425034677,-0.4243435689263518,-0.4676864998115878,-0.03769548448065094,0.01182304324512823,-0.02130708147698815,-0.09767405031268941
2018-11-01,0.03752147380480997,-0.1226690471829623,0.03158902763418839,0.008534522494608954,0.02064285117010928,0.03641238614887946,-0.05555862863425781
2018-12-01,-0.445470364846345,-0.4021358515297271,-0.241795961551472,0.08151795249381871,0.04665813170418293,0.1406459595387262,0.04360356008919597
2019-01-01,0.2220906310384238,0.1722145540731487,0.3510527075404076,0.09063908280499772,0.03533486249306389,0.0994003531829441,0.1650883201756686
2019-02-01,0.1104428069727668,0.07292445217983987,0.02510647256719739,0.04569625398971483,0.02655511225135787,0.03797083112795918,0.06364185260301453
2019-03-01,0.2039494681429641,0.09187843536062015,0.1923056181818314,0.1231893730022469,0.04632445292804732,0.1558374820876697,0.1904599462510967
2019-04-01,0.2986758532613811,0.1749986073715635,0.1776920993295186,0.05932477378998785,0.03357091188914202,0.04954442377470458,0.1043119472157374
2019-05-01,-0.1858374805497928,-0.1844571948918617,-0.2126205637186817,0.143628632897889,0.05881703924930742,0.207538390471118,0.1738335353009882
2019-06-01,0.3680371886127091,0.278866791475377,0.2407466201199791,0.1187336472607704,0.04887694010636978,0.132258770016386,0.242665385247858
2019-07-01,0.1374682130734795,-0.06803923988766239,-0.08702093556521462,0.08306805959954122,0.0290096430310583,0.1010086548092032,0.1310823023161395
2019-08-01,0.05375416694172253,-0.05076171059659393,-0.1102363277049385,0.1919002284854689,0.05965624825487698,0.2594481218610928,0.2961918748245881
2019-09-01,0.1164779897262245,0.09277713654115846,-0.02865662877579878,0.05976585209721824,0.02231834213149192,0.05965439230912456,0.09323533411445012
2019-10-01,0.1473703668147333,0.1812987513229184,0.1590188332735745,0.09281195967299594,0.04059619301532924,0.1075986700101729,0.1386088116749852
2019-11-01,0.3053709265613304,0.1974214806905953,0.1194046927849945,0.04261795950983388,0.01647862827891561,0.0102663776704589,0.1016674265664023
2019-12-01,0.3096015851398849,0.283902071467558,0.4186093257084924,0.03447833107228321,0.02234183971486164,-0.01553640113501098,0.09811555798175087
2020-01-01,0.1642987455946029,-0.01324405828892966,-0.1235701914381466,0.1244734740770936,0.04181766520539532,0.1734352228434372,0.1847363535603003
2020-02-01,-0.2581315903701623,-0.3015122026392534,-0.114775431300751,0.1317608198007403,0.06258123927384973,0.2004577803641915,0.1398010634398315
2020-03-01,-0.6473562916865777,-0.8221942590161787,-0.8786733203315531,0.01114037832270642,0.09327588824183103,0.3015955819805932,-0.2087591710418238
2020-04-01,0.2751681296528907,-0.05483966098862333,0.0007755281481288123,0.1646219192205906,0.06103402512191131,0.1668919165712153,0.1820318927716705
2020-05-01,0.1975604403323155,0.0648106229134974,-0.03923426070461059,0.09235105889496614,0.0385526176693553,0.1388978228356168,0.1362925323004135
2020-06-01,0.2571453403391444,0.2074151833005332,0.3183372368931805,0.1165295174658574,0.02754952898456658,0.09542448443238177,0.2222558938405842
2020-07-01,0.348296134538876,0.1705493238145622,0.4824358209476724,0.1275896048576858,0.0257997088560335,0.1138382981547731,0.2444843888581082
2020-08-01,0.5124566026153107,0.3259117080643669,0.3509797232729105,0.01570428187343431,0.01620288643781831,0.01189085965078018,0.02265212660060939
2020-09-01,0.1707321350289816,0.1309089302270052,0.2461458897390604,0.04148357243991363,0.01071912969197136,0.04074901444046852,0.07029210223920285
2020-10-01,0.02039949406498037,-0.06311554180154064,0.2014737456257881,-0.0113302224296708,0.005447246928516336,-0.04534445247181218,0.002024825294776433
2020-11-01,0.5104061634858414,0.6351477012814315,0.5298620549602762,0.06924941236530946,0.008625543030635952,0.02202279737253943,0.2010175119504449
2020-12-01,0.3894197783983532,0.4748770166286927,0.526390181483749,0.03793547386769874,0.009391843162432134,-0.0003802946102149374,0.08715405551224392
2021-01-01,0.2218799151021594,0.3047675261473557,0.4554429589884681,-0.01463999261751892,0.007787298455843361,-0.04475827389261072,-0.02256431389218505
2021-02-01,0.2643554429810376,0.290004755436202,0.341708162816028,-0.07393922458854402,0.002012742412491886,-0.129975145391568,-0.1061193285562049
2021-03-01,0.4364937894606476,0.3638061153379005,0.2712448629974885,-0.08491387946359685,-0.00241379523318086,-0.1789977744897727,-0.09007588535845157
2021-04-01,0.5487535133393985,0.4397831783218358,0.3132524154230015,-0.001730863103800856,0.001274213559081444,-0.0445015541745015,0.01106951146823765
2021-05-01,0.3126855793927544,0.3996973753773402,0.2676831592628116,-0.01258082423259121,0.00309773317195039,-0.03366273896038752,0.00745077808194744
2021-06-01,0.3293009698779253,0.1736257181867337,0.2346432137857022,0.03582155223731073,-0.006565065382598989,0.02718264221735844,0.1027395197606413
2021-07-01,0.3146017284431921,0.1899970670414927,-0.1555102729742029,0.05636289636651587,0.005546275492539554,0.08399000889964026,0.09492379805816104
2021-08-01,0.343319287720673,0.173344541342103,0.09311509418075947,0.02092383184393126,-0.001231032742050664,0.01545203246877774,0.04565388412926991
2021-09-01,-0.01430680827853054,-0.03104231022577836,-0.1385753710045502,-0.02406334648712147,-0.003053347125860029,-0.04779387683531527,-0.02972877973282012
2021-10-01,0.4215310607202715,0.2171443071745986,0.0699143046845162,-0.004854392673037777,-0.01778134455164293,-0.04207726432298928,0.02272834000051566
2021-11-01,0.1027766949370113,-0.1758955533420259,-0.1591222364680491,0.0008294946127567482,-0.01045770089128506,0.02370079574100584,-0.007891489777756083
2021-12-01,0.3797393235423235,0.1911270704489202,0.01221274583168952,-0.01474547358069336,-0.01705269144028193,-0.02245921722248365,-0.002242366756632808
2022-01-01,-0.1006817790724139,-0.1557284171022391,-0.005382516988857278,-0.1076554167422933,-0.04092457766688812,-0.1095530640023883,-0.1792251647983328
2022-02-01,-0.09920536786738743,-0.1317207804391234,-0.179762383462608,-0.09654150602717584,-0.03980967679825187,-0.0633992580050731,-0.1630062845967775
2022-03-01,0.134968587228388,-0.05191872258963282,-0.2175219986120796,-0.1806687323801913,-0.0903603909342044,-0.2268462638064269,-0.2228868595158086
2022-04-01,-0.3931196032500286,-0.3754960578902173,-0.4029939738701738,-0.2661391905971782,-0.06344582294572065,-0.2823481183524925,-0.4178826062866751
2022-05-01,-0.08935038697248798,-0.05730549457270881,-0.1636448337323652,-0.09933358421941788,-0.01611116098356638,-0.1301464195570448,-0.1136086935439054
2022-06-01,-0.5349328033036094,-0.5541454593771848,-0.3330706557209064,-0.1755207618002224,-0.04663589285560762,-0.1495772229451022,-0.3134549079949275
2022-07-01,0.2300434105567072,0.03969135870345561,-0.1871164379395845,0.0318388408043993,-0.001482629957287707,0.06220176128328975,0.07919632708384403
2022-08-01,-0.2334600159992289,-0.3947499811184517,-0.1770689976097498,-0.1738455304446502,-0.05585800975174601,-0.2125021212221127,-0.2698799434625299
2022-09-01,-0.4666565435491681,-0.5811391385430892,-0.5720429030574157,-0.2543449334017582,-0.07486590640176224,-0.2874026682091635,-0.3634378201850897
2022-10-01,0.1211834838139955,-0.03810899296738698,-0.368439011736976,-0.185867725403104,-0.04579318782020533,-0.2185122713150712,-0.228114481441391
2022-11-01,0.1775654206887816,0.4130396341720317,0.3645247498692949,0.0404908884138919,-0.004103882592309732,0.0225694609793349,0.1317343003997265
2022-12-01,-0.1314289847059603,0.08596648374655913,-0.04411867979474693,-0.05597244512763633,-0.003896147181947973,-0.1023714309193527,-0.06022089046934567
2023-01-01,0.2231252113461605,0.5017420952098972,0.4584301238591026,0.1299048740999422,0.03030414307221024,0.116290909364726,0.2250827137014736
2023-02-01,-0.1126725775617955,-0.03287519928238056,-0.2527759132853283,-0.1172321750594226,-0.03318397354451161,-0.1632845342852321,-0.1700880712790084
2023-03-01,0.2441827368223327,0.283194486278596,0.1543811578441026,0.1256736789385168,0.0775370330379554,0.1589359385810896,0.1916788446119499